Year,Month,Day,Hour,Minute,Value (Times are PST for temperature in C)
2008,08,03,00,00,11.10
2008,08,03,00,01,11.10
2008,08,03,00,02,11.20
2008,08,03,00,03,11.10
2008,08,03,00,04,11.10
2008,08,03,00,05,11.10
2008,08,03,00,06,11.10
2008,08,03,00,07,11.10
2008,08,03,00,08,11.10
2008,08,03,00,09,11.10
2008,08,03,00,10,11.20
2008,08,03,00,11,11.20
2008,08,03,00,12,11.20
2008,08,03,00,13,11.20
2008,08,03,00,14,11.20
2008,08,03,00,15,11.20
2008,08,03,00,16,11.20
2008,08,03,00,17,11.20
2008,08,03,00,18,11.20
2008,08,03,00,19,11.20
2008,08,03,00,20,11.20
2008,08,03,00,21,11.20
2008,08,03,00,22,11.20
2008,08,03,00,23,11.20
2008,08,03,00,24,11.20
2008,08,03,00,25,11.20
2008,08,03,00,26,11.20
2008,08,03,00,27,11.20
2008,08,03,00,28,11.20
2008,08,03,00,29,11.20
2008,08,03,00,30,11.20
2008,08,03,00,31,11.20
2008,08,03,00,32,11.20
2008,08,03,00,33,11.20
2008,08,03,00,34,11.20
2008,08,03,00,35,11.20
2008,08,03,00,36,11.20
2008,08,03,00,37,11.20
2008,08,03,00,38,11.20
2008,08,03,00,39,11.20
2008,08,03,00,40,11.30
2008,08,03,00,41,11.20
2008,08,03,00,42,11.30
2008,08,03,00,43,11.30
2008,08,03,00,44,11.30
2008,08,03,00,45,11.30
2008,08,03,00,46,11.30
2008,08,03,00,47,11.30
2008,08,03,00,48,11.30
2008,08,03,00,49,11.30
2008,08,03,00,50,11.30
2008,08,03,00,51,11.30
2008,08,03,00,52,11.30
2008,08,03,00,53,11.30
2008,08,03,00,54,11.30
2008,08,03,00,55,11.30
2008,08,03,00,56,11.30
2008,08,03,00,57,11.20
2008,08,03,00,58,11.20
2008,08,03,00,59,11.20
2008,08,03,01,00,11.20
2008,08,03,01,01,11.20
2008,08,03,01,02,11.20
2008,08,03,01,03,11.20
2008,08,03,01,04,11.10
2008,08,03,01,05,11.10
2008,08,03,01,06,11.10
2008,08,03,01,07,11.10
2008,08,03,01,08,11.10
2008,08,03,01,09,11.10
2008,08,03,01,10,11.10
2008,08,03,01,11,11.10
2008,08,03,01,12,11.00
2008,08,03,01,13,11.00
2008,08,03,01,14,11.00
2008,08,03,01,15,11.00
2008,08,03,01,16,11.00
2008,08,03,01,17,11.00
2008,08,03,01,18,11.00
2008,08,03,01,19,11.00
2008,08,03,01,20,11.10
2008,08,03,01,21,11.10
2008,08,03,01,22,11.10
2008,08,03,01,23,11.10
2008,08,03,01,24,11.10
2008,08,03,01,25,11.20
2008,08,03,01,26,11.20
2008,08,03,01,27,11.20
2008,08,03,01,28,11.20
2008,08,03,01,29,11.20
2008,08,03,01,30,11.20
2008,08,03,01,31,11.20
2008,08,03,01,32,11.20
2008,08,03,01,33,11.20
2008,08,03,01,34,11.30
2008,08,03,01,35,11.30
2008,08,03,01,36,11.30
2008,08,03,01,37,11.30
2008,08,03,01,38,11.30
2008,08,03,01,39,11.30
2008,08,03,01,40,11.30
2008,08,03,01,41,11.30
2008,08,03,01,42,11.30
2008,08,03,01,43,11.30
2008,08,03,01,44,11.30
2008,08,03,01,45,11.30
2008,08,03,01,46,11.30
2008,08,03,01,47,11.30
2008,08,03,01,48,11.30
2008,08,03,01,49,11.20
2008,08,03,01,50,11.20
2008,08,03,01,51,11.20
2008,08,03,01,52,11.20
2008,08,03,01,53,11.20
2008,08,03,01,54,11.20
2008,08,03,01,55,11.20
2008,08,03,01,56,11.10
2008,08,03,01,57,11.10
2008,08,03,01,58,11.10
2008,08,03,01,59,11.00
2008,08,03,02,00,11.00
2008,08,03,02,01,10.90
2008,08,03,02,02,10.90
2008,08,03,02,03,10.90
2008,08,03,02,04,10.90
2008,08,03,02,05,10.90
2008,08,03,02,06,10.90
2008,08,03,02,07,10.90
2008,08,03,02,08,10.90
2008,08,03,02,09,10.90
2008,08,03,02,10,10.90
2008,08,03,02,11,10.90
2008,08,03,02,12,10.90
2008,08,03,02,13,10.90
2008,08,03,02,14,10.90
2008,08,03,02,15,11.00
2008,08,03,02,16,11.00
2008,08,03,02,17,11.00
2008,08,03,02,18,11.00
2008,08,03,02,19,11.00
2008,08,03,02,20,11.00
2008,08,03,02,21,10.90
2008,08,03,02,22,10.90
2008,08,03,02,23,10.90
2008,08,03,02,24,10.90
2008,08,03,02,25,10.90
2008,08,03,02,26,10.80
2008,08,03,02,27,10.80
2008,08,03,02,28,10.80
2008,08,03,02,29,10.80
2008,08,03,02,30,10.80
2008,08,03,02,31,10.80
2008,08,03,02,32,10.90
2008,08,03,02,33,10.80
2008,08,03,02,34,10.80
2008,08,03,02,35,10.90
2008,08,03,02,36,10.90
2008,08,03,02,37,10.90
2008,08,03,02,38,10.90
2008,08,03,02,39,10.90
2008,08,03,02,40,11.00
2008,08,03,02,41,11.00
2008,08,03,02,42,11.00
2008,08,03,02,43,11.00
2008,08,03,02,44,11.00
2008,08,03,02,45,11.00
2008,08,03,02,46,11.10
2008,08,03,02,47,11.10
2008,08,03,02,48,11.10
2008,08,03,02,49,11.10
2008,08,03,02,50,11.20
2008,08,03,02,51,11.20
2008,08,03,02,52,11.20
2008,08,03,02,53,11.20
2008,08,03,02,54,11.20
2008,08,03,02,55,11.30
2008,08,03,02,56,11.30
2008,08,03,02,57,11.30
2008,08,03,02,58,11.30
2008,08,03,02,59,11.30
2008,08,03,03,00,11.40
2008,08,03,03,01,11.40
2008,08,03,03,02,11.40
2008,08,03,03,03,11.40
2008,08,03,03,04,11.50
2008,08,03,03,05,11.50
2008,08,03,03,06,11.50
2008,08,03,03,07,11.40
2008,08,03,03,08,11.40
2008,08,03,03,09,11.40
2008,08,03,03,10,11.40
2008,08,03,03,11,11.40
2008,08,03,03,12,11.40
2008,08,03,03,13,11.40
2008,08,03,03,14,11.40
2008,08,03,03,15,11.40
2008,08,03,03,16,11.50
2008,08,03,03,17,11.60
2008,08,03,03,18,11.60
2008,08,03,03,19,11.60
2008,08,03,03,20,11.60
2008,08,03,03,21,11.60
2008,08,03,03,22,11.60
2008,08,03,03,23,11.60
2008,08,03,03,24,11.60
2008,08,03,03,25,11.70
2008,08,03,03,26,11.70
2008,08,03,03,27,11.70
2008,08,03,03,28,11.70
2008,08,03,03,29,11.70
2008,08,03,03,30,11.80
2008,08,03,03,31,11.80
2008,08,03,03,32,11.80
2008,08,03,03,33,11.90
2008,08,03,03,34,11.90
2008,08,03,03,35,11.90
2008,08,03,03,36,11.90
2008,08,03,03,37,11.90
2008,08,03,03,38,11.90
2008,08,03,03,39,11.90
2008,08,03,03,40,11.90
2008,08,03,03,41,11.90
2008,08,03,03,42,11.90
2008,08,03,03,43,11.90
2008,08,03,03,44,11.90
2008,08,03,03,45,12.00
2008,08,03,03,46,12.00
2008,08,03,03,47,12.00
2008,08,03,03,48,12.10
2008,08,03,03,49,12.10
2008,08,03,03,50,12.10
2008,08,03,03,51,12.10
2008,08,03,03,52,12.10
2008,08,03,03,53,12.10
2008,08,03,03,54,12.10
2008,08,03,03,55,12.10
2008,08,03,03,56,12.10
2008,08,03,03,57,12.10
2008,08,03,03,58,12.10
2008,08,03,03,59,12.10
2008,08,03,04,00,12.10
2008,08,03,04,01,12.10
2008,08,03,04,02,12.00
2008,08,03,04,03,12.00
2008,08,03,04,04,11.90
2008,08,03,04,05,11.90
2008,08,03,04,06,11.90
2008,08,03,04,07,11.90
2008,08,03,04,08,11.90
2008,08,03,04,09,11.80
2008,08,03,04,10,11.80
2008,08,03,04,11,11.80
2008,08,03,04,12,11.80
2008,08,03,04,13,11.80
2008,08,03,04,14,11.80
2008,08,03,04,15,11.80
2008,08,03,04,16,11.80
2008,08,03,04,17,11.80
2008,08,03,04,18,11.80
2008,08,03,04,19,11.80
2008,08,03,04,20,11.80
2008,08,03,04,21,11.80
2008,08,03,04,22,11.80
2008,08,03,04,23,11.80
2008,08,03,04,24,11.70
2008,08,03,04,25,11.70
2008,08,03,04,26,11.70
2008,08,03,04,27,11.70
2008,08,03,04,28,11.70
2008,08,03,04,29,11.70
2008,08,03,04,30,11.70
2008,08,03,04,31,11.70
2008,08,03,04,32,11.70
2008,08,03,04,33,11.70
2008,08,03,04,34,11.70
2008,08,03,04,35,11.70
2008,08,03,04,36,11.70
2008,08,03,04,37,11.60
2008,08,03,04,38,11.60
2008,08,03,04,39,11.60
2008,08,03,04,40,11.60
2008,08,03,04,41,11.60
2008,08,03,04,42,11.60
2008,08,03,04,43,11.60
2008,08,03,04,44,11.60
2008,08,03,04,45,11.60
2008,08,03,04,46,11.60
2008,08,03,04,47,11.60
2008,08,03,04,48,11.60
2008,08,03,04,49,11.70
2008,08,03,04,50,11.70
2008,08,03,04,51,11.60
2008,08,03,04,52,11.60
2008,08,03,04,53,11.60
2008,08,03,04,54,11.60
2008,08,03,04,55,11.60
2008,08,03,04,56,11.60
2008,08,03,04,57,11.60
2008,08,03,04,58,11.60
2008,08,03,04,59,11.60
2008,08,03,05,00,11.70
2008,08,03,05,01,11.70
2008,08,03,05,02,11.70
2008,08,03,05,03,11.70
2008,08,03,05,04,11.70
2008,08,03,05,05,11.70
2008,08,03,05,06,11.70
2008,08,03,05,07,11.80
2008,08,03,05,08,12.00
2008,08,03,05,09,12.00
2008,08,03,05,10,12.10
2008,08,03,05,11,12.10
2008,08,03,05,12,12.10
2008,08,03,05,13,12.10
2008,08,03,05,14,12.10
2008,08,03,05,15,12.10
2008,08,03,05,16,12.10
2008,08,03,05,17,12.00
2008,08,03,05,18,12.00
2008,08,03,05,19,12.00
2008,08,03,05,20,11.90
2008,08,03,05,21,11.90
2008,08,03,05,22,12.00
2008,08,03,05,23,12.00
2008,08,03,05,24,12.00
2008,08,03,05,25,12.10
2008,08,03,05,26,12.10
2008,08,03,05,27,12.20
2008,08,03,05,28,12.20
2008,08,03,05,29,12.20
2008,08,03,05,30,12.20
2008,08,03,05,31,12.20
2008,08,03,05,32,12.30
2008,08,03,05,33,12.30
2008,08,03,05,34,12.30
2008,08,03,05,35,12.30
2008,08,03,05,36,12.30
2008,08,03,05,37,12.30
2008,08,03,05,38,12.30
2008,08,03,05,39,12.30
2008,08,03,05,40,12.30
2008,08,03,05,41,12.30
2008,08,03,05,42,12.30
2008,08,03,05,43,12.30
2008,08,03,05,44,12.30
2008,08,03,05,45,12.30
2008,08,03,05,46,12.20
2008,08,03,05,47,12.20
2008,08,03,05,48,12.20
2008,08,03,05,49,12.20
2008,08,03,05,50,12.20
2008,08,03,05,51,12.20
2008,08,03,05,52,12.20
2008,08,03,05,53,12.20
2008,08,03,05,54,12.20
2008,08,03,05,55,12.20
2008,08,03,05,56,12.10
2008,08,03,05,57,12.10
2008,08,03,05,58,12.10
2008,08,03,05,59,12.10
2008,08,03,06,00,12.10
2008,08,03,06,01,12.10
2008,08,03,06,02,12.00
2008,08,03,06,03,12.00
2008,08,03,06,04,12.00
2008,08,03,06,05,12.00
2008,08,03,06,06,12.00
2008,08,03,06,07,12.00
2008,08,03,06,08,12.00
2008,08,03,06,09,11.90
2008,08,03,06,10,11.90
2008,08,03,06,11,11.90
2008,08,03,06,12,11.90
2008,08,03,06,13,11.90
2008,08,03,06,14,11.90
2008,08,03,06,15,11.90
2008,08,03,06,16,11.90
2008,08,03,06,17,11.90
2008,08,03,06,18,11.90
2008,08,03,06,19,11.90
2008,08,03,06,20,11.90
2008,08,03,06,21,11.90
2008,08,03,06,22,11.90
2008,08,03,06,23,11.90
2008,08,03,06,24,11.90
2008,08,03,06,25,11.90
2008,08,03,06,26,11.90
2008,08,03,06,27,11.90
2008,08,03,06,28,11.90
2008,08,03,06,29,12.00
2008,08,03,06,30,12.00
2008,08,03,06,31,12.00
2008,08,03,06,32,12.10
2008,08,03,06,33,12.10
2008,08,03,06,34,12.10
2008,08,03,06,35,12.10
2008,08,03,06,36,12.10
2008,08,03,06,37,12.20
2008,08,03,06,38,12.20
2008,08,03,06,39,12.20
2008,08,03,06,40,12.20
2008,08,03,06,41,12.20
2008,08,03,06,42,12.20
2008,08,03,06,43,12.20
2008,08,03,06,44,12.20
2008,08,03,06,45,12.20
2008,08,03,06,46,12.20
2008,08,03,06,47,12.20
2008,08,03,06,48,12.20
2008,08,03,06,49,12.20
2008,08,03,06,50,12.20
2008,08,03,06,51,12.20
2008,08,03,06,52,12.20
2008,08,03,06,53,12.30
2008,08,03,06,54,12.30
2008,08,03,06,55,12.30
2008,08,03,06,56,12.40
2008,08,03,06,57,12.50
2008,08,03,06,58,12.50
2008,08,03,06,59,12.60
2008,08,03,07,00,12.60
2008,08,03,07,01,12.70
2008,08,03,07,02,12.70
2008,08,03,07,03,12.80
2008,08,03,07,04,12.90
2008,08,03,07,05,12.90
2008,08,03,07,06,12.90
2008,08,03,07,07,13.00
2008,08,03,07,08,13.10
2008,08,03,07,09,13.20
2008,08,03,07,10,13.30
2008,08,03,07,11,13.30
2008,08,03,07,12,13.40
2008,08,03,07,13,13.50
2008,08,03,07,14,13.50
2008,08,03,07,15,13.60
2008,08,03,07,16,13.60
2008,08,03,07,17,13.70
2008,08,03,07,18,13.70
2008,08,03,07,19,13.80
2008,08,03,07,20,13.80
2008,08,03,07,21,13.90
2008,08,03,07,22,13.90
2008,08,03,07,23,14.00
2008,08,03,07,24,14.00
2008,08,03,07,25,14.10
2008,08,03,07,26,14.10
2008,08,03,07,27,14.20
2008,08,03,07,28,14.20
2008,08,03,07,29,14.30
2008,08,03,07,30,14.30
2008,08,03,07,31,14.40
2008,08,03,07,32,14.40
2008,08,03,07,33,14.50
2008,08,03,07,34,14.50
2008,08,03,07,35,14.60
2008,08,03,07,36,14.60
2008,08,03,07,37,14.70
2008,08,03,07,38,14.70
2008,08,03,07,39,14.80
2008,08,03,07,40,14.80
2008,08,03,07,41,15.00
2008,08,03,07,42,15.00
2008,08,03,07,43,15.00
2008,08,03,07,44,15.00
2008,08,03,07,45,15.00
2008,08,03,07,46,15.00
2008,08,03,07,47,15.00
2008,08,03,07,48,15.10
2008,08,03,07,49,15.20
2008,08,03,07,50,15.20
2008,08,03,07,51,15.20
2008,08,03,07,52,15.30
2008,08,03,07,53,15.30
2008,08,03,07,54,15.30
2008,08,03,07,55,15.40
2008,08,03,07,56,15.40
2008,08,03,07,57,15.40
2008,08,03,07,58,15.50
2008,08,03,07,59,15.50
2008,08,03,08,00,15.60
2008,08,03,08,01,15.60
2008,08,03,08,02,15.70
2008,08,03,08,03,15.70
2008,08,03,08,04,15.70
2008,08,03,08,05,15.70
2008,08,03,08,06,15.80
2008,08,03,08,07,15.80
2008,08,03,08,08,15.80
2008,08,03,08,09,15.80
2008,08,03,08,10,15.80
2008,08,03,08,11,15.80
2008,08,03,08,12,15.90
2008,08,03,08,13,15.90
2008,08,03,08,14,16.00
2008,08,03,08,15,16.10
2008,08,03,08,16,16.20
2008,08,03,08,17,16.20
2008,08,03,08,18,16.20
2008,08,03,08,19,16.30
2008,08,03,08,20,16.30
2008,08,03,08,21,16.30
2008,08,03,08,22,16.30
2008,08,03,08,23,16.20
2008,08,03,08,24,16.20
2008,08,03,08,25,16.20
2008,08,03,08,26,16.20
2008,08,03,08,27,16.20
2008,08,03,08,28,16.30
2008,08,03,08,29,16.30
2008,08,03,08,30,16.30
2008,08,03,08,31,16.30
2008,08,03,08,32,16.40
2008,08,03,08,33,16.40
2008,08,03,08,34,16.40
2008,08,03,08,35,16.40
2008,08,03,08,36,16.40
2008,08,03,08,37,16.40
2008,08,03,08,38,16.50
2008,08,03,08,39,16.50
2008,08,03,08,40,16.60
2008,08,03,08,41,16.60
2008,08,03,08,42,16.70
2008,08,03,08,43,16.70
2008,08,03,08,44,16.70
2008,08,03,08,45,16.70
2008,08,03,08,46,16.80
2008,08,03,08,47,16.80
2008,08,03,08,48,16.90
2008,08,03,08,49,17.00
2008,08,03,08,50,17.00
2008,08,03,08,51,17.10
2008,08,03,08,52,17.10
2008,08,03,08,53,17.10
2008,08,03,08,54,17.10
2008,08,03,08,55,17.20
2008,08,03,08,56,17.20
2008,08,03,08,57,17.30
2008,08,03,08,58,17.30
2008,08,03,08,59,17.30
2008,08,03,09,00,17.40
2008,08,03,09,01,17.40
2008,08,03,09,02,17.40
2008,08,03,09,03,17.40
2008,08,03,09,04,17.40
2008,08,03,09,05,17.50
2008,08,03,09,06,17.50
2008,08,03,09,07,17.60
2008,08,03,09,08,17.70
2008,08,03,09,09,17.70
2008,08,03,09,10,17.80
2008,08,03,09,11,17.90
2008,08,03,09,12,18.00
2008,08,03,09,13,18.10
2008,08,03,09,14,18.10
2008,08,03,09,15,18.20
2008,08,03,09,16,18.30
2008,08,03,09,17,18.30
2008,08,03,09,18,18.40
2008,08,03,09,19,18.40
2008,08,03,09,20,18.50
2008,08,03,09,21,18.60
2008,08,03,09,22,18.50
2008,08,03,09,23,18.50
2008,08,03,09,24,18.50
2008,08,03,09,25,18.50
2008,08,03,09,26,18.60
2008,08,03,09,27,18.60
2008,08,03,09,28,18.60
2008,08,03,09,29,18.70
2008,08,03,09,30,18.70
2008,08,03,09,31,18.70
2008,08,03,09,32,18.80
2008,08,03,09,33,18.80
2008,08,03,09,34,18.70
2008,08,03,09,35,18.70
2008,08,03,09,36,18.70
2008,08,03,09,37,18.70
2008,08,03,09,38,18.70
2008,08,03,09,39,18.70
2008,08,03,09,40,18.70
2008,08,03,09,41,18.70
2008,08,03,09,42,18.70
2008,08,03,09,43,18.60
2008,08,03,09,44,18.50
2008,08,03,09,45,18.50
2008,08,03,09,46,18.50
2008,08,03,09,47,18.40
2008,08,03,09,48,18.40
2008,08,03,09,49,18.40
2008,08,03,09,50,18.40
2008,08,03,09,51,18.40
2008,08,03,09,52,18.40
2008,08,03,09,53,18.50
2008,08,03,09,54,18.50
2008,08,03,09,55,18.60
2008,08,03,09,56,18.60
2008,08,03,09,57,18.60
2008,08,03,09,58,18.60
2008,08,03,09,59,18.50
2008,08,03,10,00,18.50
2008,08,03,10,01,18.60
2008,08,03,10,02,18.60
2008,08,03,10,03,18.60
2008,08,03,10,04,18.70
2008,08,03,10,05,18.70
2008,08,03,10,06,18.70
2008,08,03,10,07,18.80
2008,08,03,10,08,18.90
2008,08,03,10,09,19.00
2008,08,03,10,10,19.10
2008,08,03,10,11,19.20
2008,08,03,10,12,19.20
2008,08,03,10,13,19.30
2008,08,03,10,14,19.30
2008,08,03,10,15,19.30
2008,08,03,10,16,19.30
2008,08,03,10,17,19.30
2008,08,03,10,18,19.30
2008,08,03,10,19,19.30
2008,08,03,10,20,19.30
2008,08,03,10,21,19.40
2008,08,03,10,22,19.30
2008,08,03,10,23,19.30
2008,08,03,10,24,19.30
2008,08,03,10,25,19.20
2008,08,03,10,26,19.20
2008,08,03,10,27,19.20
2008,08,03,10,28,19.30
2008,08,03,10,29,19.30
2008,08,03,10,30,19.30
2008,08,03,10,31,19.30
2008,08,03,10,32,19.40
2008,08,03,10,33,19.40
2008,08,03,10,34,19.30
2008,08,03,10,35,19.20
2008,08,03,10,36,19.20
2008,08,03,10,37,19.30
2008,08,03,10,38,19.30
2008,08,03,10,39,19.40
2008,08,03,10,40,19.50
2008,08,03,10,41,19.60
2008,08,03,10,42,19.60
2008,08,03,10,43,19.60
2008,08,03,10,44,19.60
2008,08,03,10,45,19.70
2008,08,03,10,46,19.70
2008,08,03,10,47,19.70
2008,08,03,10,48,19.80
2008,08,03,10,49,19.70
2008,08,03,10,50,19.70
2008,08,03,10,51,19.70
2008,08,03,10,52,19.70
2008,08,03,10,53,19.70
2008,08,03,10,54,19.70
2008,08,03,10,55,19.70
2008,08,03,10,56,19.70
2008,08,03,10,57,19.60
2008,08,03,10,58,19.50
2008,08,03,10,59,19.40
2008,08,03,11,00,19.40
2008,08,03,11,01,19.40
2008,08,03,11,02,19.40
2008,08,03,11,03,19.50
2008,08,03,11,04,19.60
2008,08,03,11,05,19.60
2008,08,03,11,06,19.60
2008,08,03,11,07,19.50
2008,08,03,11,08,19.40
2008,08,03,11,09,19.40
2008,08,03,11,10,19.40
2008,08,03,11,11,19.40
2008,08,03,11,12,19.40
2008,08,03,11,13,19.40
2008,08,03,11,14,19.40
2008,08,03,11,15,19.40
2008,08,03,11,16,19.40
2008,08,03,11,17,19.50
2008,08,03,11,18,19.60
2008,08,03,11,19,19.70
2008,08,03,11,20,19.80
2008,08,03,11,21,19.90
2008,08,03,11,22,20.00
2008,08,03,11,23,20.10
2008,08,03,11,24,20.20
2008,08,03,11,25,20.30
2008,08,03,11,26,20.30
2008,08,03,11,27,20.30
2008,08,03,11,28,20.30
2008,08,03,11,29,20.30
2008,08,03,11,30,20.20
2008,08,03,11,31,20.20
2008,08,03,11,32,20.20
2008,08,03,11,33,20.20
2008,08,03,11,34,20.30
2008,08,03,11,35,20.30
2008,08,03,11,36,20.30
2008,08,03,11,37,20.30
2008,08,03,11,38,20.40
2008,08,03,11,39,20.40
2008,08,03,11,40,20.50
2008,08,03,11,41,20.50
2008,08,03,11,42,20.60
2008,08,03,11,43,20.70
2008,08,03,11,44,20.80
2008,08,03,11,45,20.80
2008,08,03,11,46,20.90
2008,08,03,11,47,20.90
2008,08,03,11,48,20.90
2008,08,03,11,49,20.80
2008,08,03,11,50,20.80
2008,08,03,11,51,20.80
2008,08,03,11,52,20.80
2008,08,03,11,53,20.70
2008,08,03,11,54,20.80
2008,08,03,11,55,20.80
2008,08,03,11,56,20.80
2008,08,03,11,57,20.80
2008,08,03,11,58,20.80
2008,08,03,11,59,20.80
2008,08,03,12,00,20.90
2008,08,03,12,01,21.00
2008,08,03,12,02,21.10
2008,08,03,12,03,21.20
2008,08,03,12,04,21.20
2008,08,03,12,05,21.20
2008,08,03,12,06,21.10
2008,08,03,12,07,20.90
2008,08,03,12,08,20.60
2008,08,03,12,09,20.40
2008,08,03,12,10,20.30
2008,08,03,12,11,20.20
2008,08,03,12,12,20.20
2008,08,03,12,13,20.30
2008,08,03,12,14,20.30
2008,08,03,12,15,20.30
2008,08,03,12,16,20.40
2008,08,03,12,17,20.40
2008,08,03,12,18,20.40
2008,08,03,12,19,20.50
2008,08,03,12,20,20.50
2008,08,03,12,21,20.60
2008,08,03,12,22,20.60
2008,08,03,12,23,20.60
2008,08,03,12,24,20.70
2008,08,03,12,25,20.80
2008,08,03,12,26,20.80
2008,08,03,12,27,20.90
2008,08,03,12,28,21.00
2008,08,03,12,29,21.00
2008,08,03,12,30,21.10
2008,08,03,12,31,21.10
2008,08,03,12,32,21.10
2008,08,03,12,33,21.20
2008,08,03,12,34,21.30
2008,08,03,12,35,21.30
2008,08,03,12,36,21.50
2008,08,03,12,37,21.60
2008,08,03,12,38,21.80
2008,08,03,12,39,21.80
2008,08,03,12,40,21.60
2008,08,03,12,41,21.40
2008,08,03,12,42,21.30
2008,08,03,12,43,21.20
2008,08,03,12,44,21.10
2008,08,03,12,45,21.00
2008,08,03,12,46,21.00
2008,08,03,12,47,20.80
2008,08,03,12,48,20.70
2008,08,03,12,49,20.60
2008,08,03,12,50,20.60
2008,08,03,12,51,20.60
2008,08,03,12,52,20.60
2008,08,03,12,53,20.50
2008,08,03,12,54,20.40
2008,08,03,12,55,20.40
2008,08,03,12,56,20.40
2008,08,03,12,57,20.30
2008,08,03,12,58,20.30
2008,08,03,12,59,20.30
2008,08,03,13,00,20.30
2008,08,03,13,01,20.30
2008,08,03,13,02,20.30
2008,08,03,13,03,20.30
2008,08,03,13,04,20.40
2008,08,03,13,05,20.40
2008,08,03,13,06,20.50
2008,08,03,13,07,20.60
2008,08,03,13,08,20.70
2008,08,03,13,09,20.70
2008,08,03,13,10,20.80
2008,08,03,13,11,20.70
2008,08,03,13,12,20.60
2008,08,03,13,13,20.60
2008,08,03,13,14,20.60
2008,08,03,13,15,20.60
2008,08,03,13,16,20.50
2008,08,03,13,17,20.50
2008,08,03,13,18,20.60
2008,08,03,13,19,20.60
2008,08,03,13,20,20.60
2008,08,03,13,21,20.70
2008,08,03,13,22,20.80
2008,08,03,13,23,20.90
2008,08,03,13,24,20.80
2008,08,03,13,25,20.60
2008,08,03,13,26,20.50
2008,08,03,13,27,20.50
2008,08,03,13,28,20.40
2008,08,03,13,29,20.30
2008,08,03,13,30,20.30
2008,08,03,13,31,20.30
2008,08,03,13,32,20.30
2008,08,03,13,33,20.30
2008,08,03,13,34,20.30
2008,08,03,13,35,20.50
2008,08,03,13,36,20.60
2008,08,03,13,37,20.70
2008,08,03,13,38,20.80
2008,08,03,13,39,20.80
2008,08,03,13,40,20.90
2008,08,03,13,41,20.90
2008,08,03,13,42,20.90
2008,08,03,13,43,20.80
2008,08,03,13,44,20.70
2008,08,03,13,45,20.70
2008,08,03,13,46,20.80
2008,08,03,13,47,20.80
2008,08,03,13,48,20.80
2008,08,03,13,49,20.90
2008,08,03,13,50,21.00
2008,08,03,13,51,21.10
2008,08,03,13,52,21.10
2008,08,03,13,53,21.10
2008,08,03,13,54,21.00
2008,08,03,13,55,20.90
2008,08,03,13,56,20.80
2008,08,03,13,57,20.80
2008,08,03,13,58,20.70
2008,08,03,13,59,20.70
2008,08,03,14,00,20.70
2008,08,03,14,01,20.60
2008,08,03,14,02,20.60
2008,08,03,14,03,20.60
2008,08,03,14,04,20.60
2008,08,03,14,05,20.60
2008,08,03,14,06,20.60
2008,08,03,14,07,20.70
2008,08,03,14,08,20.70
2008,08,03,14,09,20.80
2008,08,03,14,10,20.90
2008,08,03,14,11,20.90
2008,08,03,14,12,20.90
2008,08,03,14,13,20.90
2008,08,03,14,14,20.90
2008,08,03,14,15,20.90
2008,08,03,14,16,21.00
2008,08,03,14,17,21.00
2008,08,03,14,18,21.10
2008,08,03,14,19,21.10
2008,08,03,14,20,21.10
2008,08,03,14,21,21.10
2008,08,03,14,22,21.00
2008,08,03,14,23,20.80
2008,08,03,14,24,20.70
2008,08,03,14,25,20.70
2008,08,03,14,26,20.70
2008,08,03,14,27,20.80
2008,08,03,14,28,20.90
2008,08,03,14,29,21.00
2008,08,03,14,30,21.10
2008,08,03,14,31,21.10
2008,08,03,14,32,21.20
2008,08,03,14,33,21.20
2008,08,03,14,34,21.20
2008,08,03,14,35,21.20
2008,08,03,14,36,21.10
2008,08,03,14,37,21.00
2008,08,03,14,38,20.90
2008,08,03,14,39,20.80
2008,08,03,14,40,20.70
2008,08,03,14,41,20.70
2008,08,03,14,42,20.70
2008,08,03,14,43,20.80
2008,08,03,14,44,20.80
2008,08,03,14,45,20.80
2008,08,03,14,46,20.80
2008,08,03,14,47,20.80
2008,08,03,14,48,20.70
2008,08,03,14,49,20.70
2008,08,03,14,50,20.60
2008,08,03,14,51,20.60
2008,08,03,14,52,20.50
2008,08,03,14,53,20.50
2008,08,03,14,54,20.50
2008,08,03,14,55,20.40
2008,08,03,14,56,20.40
2008,08,03,14,57,20.40
2008,08,03,14,58,20.40
2008,08,03,14,59,20.40
2008,08,03,15,00,20.40
2008,08,03,15,01,20.50
2008,08,03,15,02,20.50
2008,08,03,15,03,20.60
2008,08,03,15,04,20.70
2008,08,03,15,05,20.80
2008,08,03,15,06,20.80
2008,08,03,15,07,20.90
2008,08,03,15,08,21.00
2008,08,03,15,09,21.10
2008,08,03,15,10,21.10
2008,08,03,15,11,21.20
2008,08,03,15,12,21.20
2008,08,03,15,13,21.20
2008,08,03,15,14,21.20
2008,08,03,15,15,21.20
2008,08,03,15,16,21.10
2008,08,03,15,17,21.00
2008,08,03,15,18,20.90
2008,08,03,15,19,20.90
2008,08,03,15,20,20.90
2008,08,03,15,21,20.90
2008,08,03,15,22,20.90
2008,08,03,15,23,20.90
2008,08,03,15,24,20.90
2008,08,03,15,25,20.90
2008,08,03,15,26,20.90
2008,08,03,15,27,20.80
2008,08,03,15,28,20.80
2008,08,03,15,29,20.70
2008,08,03,15,30,20.70
2008,08,03,15,31,20.80
2008,08,03,15,32,20.80
2008,08,03,15,33,20.90
2008,08,03,15,34,20.80
2008,08,03,15,35,20.80
2008,08,03,15,36,20.70
2008,08,03,15,37,20.60
2008,08,03,15,38,20.60
2008,08,03,15,39,20.60
2008,08,03,15,40,20.60
2008,08,03,15,41,20.70
2008,08,03,15,42,20.70
2008,08,03,15,43,20.80
2008,08,03,15,44,20.80
2008,08,03,15,45,20.90
2008,08,03,15,46,21.00
2008,08,03,15,47,21.00
2008,08,03,15,48,21.00
2008,08,03,15,49,21.00
2008,08,03,15,50,21.00
2008,08,03,15,51,21.00
2008,08,03,15,52,21.10
2008,08,03,15,53,21.20
2008,08,03,15,54,21.20
2008,08,03,15,55,21.20
2008,08,03,15,56,21.20
2008,08,03,15,57,21.20
2008,08,03,15,58,21.20
2008,08,03,15,59,21.30
2008,08,03,16,00,21.30
2008,08,03,16,01,21.20
2008,08,03,16,02,21.20
2008,08,03,16,03,21.10
2008,08,03,16,04,21.00
2008,08,03,16,05,20.90
2008,08,03,16,06,20.90
2008,08,03,16,07,20.90
2008,08,03,16,08,20.80
2008,08,03,16,09,20.90
2008,08,03,16,10,20.90
2008,08,03,16,11,21.00
2008,08,03,16,12,21.10
2008,08,03,16,13,21.10
2008,08,03,16,14,21.20
2008,08,03,16,15,21.30
2008,08,03,16,16,21.40
2008,08,03,16,17,21.40
2008,08,03,16,18,21.40
2008,08,03,16,19,21.40
2008,08,03,16,20,21.50
2008,08,03,16,21,21.50
2008,08,03,16,22,21.50
2008,08,03,16,23,21.50
2008,08,03,16,24,21.60
2008,08,03,16,25,21.60
2008,08,03,16,26,21.70
2008,08,03,16,27,21.70
2008,08,03,16,28,21.70
2008,08,03,16,29,21.60
2008,08,03,16,30,21.50
2008,08,03,16,31,21.40
2008,08,03,16,32,21.40
2008,08,03,16,33,21.30
2008,08,03,16,34,21.30
2008,08,03,16,35,21.30
2008,08,03,16,36,21.30
2008,08,03,16,37,21.40
2008,08,03,16,38,21.40
2008,08,03,16,39,21.40
2008,08,03,16,40,21.40
2008,08,03,16,41,21.40
2008,08,03,16,42,21.40
2008,08,03,16,43,21.40
2008,08,03,16,44,21.40
2008,08,03,16,45,21.30
2008,08,03,16,46,21.30
2008,08,03,16,47,21.30
2008,08,03,16,48,21.20
2008,08,03,16,49,21.20
2008,08,03,16,50,21.20
2008,08,03,16,51,21.30
2008,08,03,16,52,21.30
2008,08,03,16,53,21.30
2008,08,03,16,54,21.30
2008,08,03,16,55,21.30
2008,08,03,16,56,21.40
2008,08,03,16,57,21.40
2008,08,03,16,58,21.40
2008,08,03,16,59,21.40
2008,08,03,17,00,21.40
2008,08,03,17,01,21.40
2008,08,03,17,02,21.50
2008,08,03,17,03,21.50
2008,08,03,17,04,21.50
2008,08,03,17,05,21.60
2008,08,03,17,06,21.60
2008,08,03,17,07,21.50
2008,08,03,17,08,21.50
2008,08,03,17,09,21.40
2008,08,03,17,10,21.40
2008,08,03,17,11,21.30
2008,08,03,17,12,21.30
2008,08,03,17,13,21.30
2008,08,03,17,14,21.30
2008,08,03,17,15,21.30
2008,08,03,17,16,21.30
2008,08,03,17,17,21.30
2008,08,03,17,18,21.30
2008,08,03,17,19,21.20